Погода в Ядрино

Россия / Чувашская Республика     55°59′25″N   46°25′40″E
темп.,
°C
ветер,
м/с
пор.,
м/с
влажн.,
%
обл.,
%
осадки,
мм/ч
давл.,
гПа
погр.,
м
19 апреля, пн
пн1900:00+4всв6117168 0.0 1026493
03:00+3всв61165100 0.0 1027510
06:00+1всв71367100 0.0 1027527
09:00+4в81153100 0.0 1028800
12:00+7в81037100 0.0 10281454
15:00+7в81132100 0.0 10281631
18:00+6в71238100 0.0 10281085
21:00+3в7154396 0.0 1029589
20 апреля, вт
вт2000:00+1в7154759 0.0 1029504
03:000в6145426 0.0 1030378
06:000в714564 0.0 1029435
09:00+6вюв812420 0.0 10301006
12:00+8вюв911340 0.0 10291311
15:00+9вюв911325 0.0 10271436
18:00+7вюв8133817 0.0 1025887
21:00+5вюв71643100 0.0 1025587
21 апреля, ср
ср2100:00+4вюв9184585 0.0 1022737
03:00+3вюв101949100 0.0 1020765
06:00+2юв102179100 2.4 1018816
09:00+1юв112189100 4.9 1017812
12:00+2юв111988100 0.1 1016778
15:00+3ююв101790100 0.1 1016828
18:00+4ююв81589100 0.0 1017565
21:00+4ююв7159389 0.0 1018502
22 апреля, чт
чт2200:00+4ююв61296100 0.6 1018415
03:00+4ююв4997100 1.2 1019376
06:00+4ююв4996100 0.0 1020279
09:00+8ю578583 0.0 1020483
12:00+11ю6771100 0.1 10201184
15:00+12ююз696497 0.8 10201406
18:00+11ююз346943 0.3 102190
21:00+7ююз47775 0.3 102299
23 апреля, пт
пт2300:00+6ю357878 0.0 102263
03:00+7ю3779100 0.0 1022139
06:00+7ю377998 0.0 1023168
09:00+13ю465734 0.0 1023409
12:00+16ююз434256 0.0 10222000
15:00+16юв4444100 0.0 10211667
18:00+13юв596494 0.0 1021311
21:00+10юв5107332 0.0 1021302